QPF
0.01 0.02 0.05 0.07 0.07 0.06 0.07 0.04 0.04 0.04 0.04 0.06 0.09 0.08 0.05 0.03 0.03 0.04 0.04 0.04 0.03 0.02 0.03 0.03 0.02 0.03 0.05 0.07 0.10 0.11 0.09 0.09 0.09 0.11 0.15 0.11 0.07 0.06 0.05 0.06 0.05 0.04 0.06
0.00 0.02 0.05 0.06 0.06 0.06 0.07 0.04 0.04 0.04 0.03 0.05 0.06 0.05 0.02 0.02 0.04 0.03 0.03 0.03 0.03 0.02 0.03 0.03 0.02 0.02 0.02 0.04 0.06 0.08 0.10 0.09 0.07 0.09 0.10 0.09 0.08 0.06 0.05 0.04 0.03 0.03 0.05
0.00 0.01 0.03 0.05 0.05 0.06 0.06 0.04 0.04 0.03 0.03 0.03 0.04 0.04 0.02 0.02 0.03 0.04 0.03 0.02 0.02 0.02 0.02 0.03 0.03 0.03 0.02 0.03 0.04 0.06 0.07 0.06 0.06 0.07 0.07 0.05 0.06 0.06 0.04 0.04 0.05 0.06 0.05
0.00 0.01 0.02 0.04 0.04 0.05 0.06 0.05 0.04 0.03 0.03 0.03 0.04 0.04 0.03 0.03 0.04 0.04 0.03 0.02 0.02 0.02 0.02 0.03 0.03 0.03 0.03 0.03 0.03 0.05 0.06 0.05 0.05 0.04 0.02 0.03 0.03 0.05 0.04 0.05 0.06 0.05 0.05
0.00 0.00 0.03 0.04 0.03 0.04 0.05 0.06 0.05 0.04 0.02 0.03 0.03 0.04 0.03 0.03 0.03 0.04 0.03 0.03 0.03 0.03 0.03 0.03 0.04 0.04 0.04 0.04 0.04 0.06 0.06 0.05 0.03 0.01 0.00 0.01 0.01 0.03 0.03 0.04 0.06 0.06 0.06
0.00 0.01 0.04 0.05 0.03 0.05 0.05 0.05 0.05 0.04 0.03 0.03 0.03 0.03 0.03 0.03 0.02 0.03 0.02 0.02 0.03 0.04 0.04 0.03 0.03 0.04 0.04 0.05 0.05 0.06 0.06 0.05 0.02 0.00 0.00 0.00 0.01 0.03 0.03 0.04 0.04 0.05 0.05
0.00 0.01 0.03 0.05 0.05 0.06 0.07 0.05 0.04 0.03 0.02 0.03 0.04 0.04 0.04 0.03 0.03 0.02 0.02 0.02 0.03 0.04 0.04 0.04 0.04 0.04 0.05 0.05 0.03 0.03 0.03 0.02 0.01 0.01 0.00 0.00 0.02 0.02 0.02 0.03 0.03 0.04 0.04
0.01 0.01 0.02 0.04 0.04 0.06 0.08 0.05 0.04 0.02 0.02 0.02 0.03 0.03 0.03 0.02 0.02 0.02 0.02 0.02 0.02 0.03 0.04 0.04 0.04 0.03 0.03 0.03 0.03 0.03 0.03 0.02 0.01 0.01 0.02 0.02 0.03 0.03 0.02 0.02 0.02 0.03 0.03
0.01 0.01 0.02 0.04 0.04 0.06 0.08 0.06 0.03 0.03 0.03 0.02 0.03 0.03 0.03 0.03 0.03 0.02 0.02 0.02 0.02 0.03 0.04 0.04 0.04 0.04 0.04 0.04 0.04 0.03 0.03 0.03 0.02 0.02 0.02 0.03 0.04 0.04 0.04 0.04 0.03 0.03 0.04
0.02 0.02 0.02 0.02 0.03 0.03 0.04 0.05 0.05 0.05 0.04 0.04 0.04 0.04 0.03 0.03 0.03 0.02 0.03 0.03 0.02 0.02 0.02 0.04 0.05 0.05 0.04 0.04 0.03 0.05 0.08 0.06 0.03 0.02 0.02 0.03 0.04 0.03 0.03 0.03 0.04 0.04 0.04
0.03 0.03 0.03 0.02 0.01 0.01 0.01 0.03 0.04 0.04 0.05 0.05 0.04 0.03 0.02 0.01 0.01 0.01 0.02 0.04 0.02 0.02 0.01 0.02 0.03 0.04 0.05 0.04 0.04 0.04 0.06 0.04 0.03 0.02 0.02 0.03 0.04 0.05 0.07 0.06 0.05 0.05 0.04
0.03 0.02 0.03 0.03 0.02 0.01 0.01 0.02 0.02 0.02 0.02 0.03 0.03 0.02 0.01 0.00 0.01 0.01 0.02 0.03 0.04 0.03 0.02 0.02 0.02 0.02 0.02 0.02 0.03 0.03 0.03 0.02 0.02 0.02 0.04 0.05 0.05 0.05 0.05 0.06 0.07 0.06 0.05
0.03 0.03 0.03 0.03 0.04 0.03 0.03 0.02 0.02 0.02 0.01 0.01 0.01 0.01 0.01 0.01 0.01 0.01 0.01 0.02 0.03 0.02 0.02 0.01 0.01 0.01 0.00 0.01 0.02 0.03 0.03 0.03 0.03 0.03 0.04 0.06 0.06 0.07 0.06 0.06 0.06 0.07 0.06
0.03 0.04 0.03 0.03 0.04 0.05 0.04 0.04 0.03 0.02 0.02 0.02 0.02 0.02 0.02 0.02 0.02 0.01 0.01 0.01 0.02 0.01 0.01 0.01 0.01 0.00 0.00 0.01 0.01 0.02 0.02 0.03 0.04 0.04 0.06 0.08 0.08 0.08 0.07 0.07 0.06 0.06 0.06
0.03 0.05 0.04 0.03 0.04 0.05 0.04 0.05 0.03 0.03 0.03 0.03 0.04 0.03 0.02 0.03 0.04 0.03 0.02 0.02 0.03 0.02 0.02 0.01 0.01 0.01 0.01 0.01 0.01 0.02 0.02 0.03 0.03 0.04 0.06 0.11 0.14 0.13 0.13 0.12 0.10 0.09 0.09
0.04 0.05 0.04 0.03 0.03 0.04 0.03 0.04 0.03 0.02 0.04 0.05 0.05 0.04 0.03 0.03 0.04 0.04 0.03 0.02 0.02 0.04 0.03 0.02 0.01 0.01 0.01 0.01 0.01 0.01 0.01 0.01 0.01 0.02 0.03 0.05 0.10 0.13 0.16 0.17 0.16 0.15 0.15
0.06 0.05 0.04 0.03 0.03 0.04 0.03 0.02 0.01 0.01 0.03 0.04 0.05 0.05 0.04 0.03 0.03 0.03 0.03 0.02 0.02 0.03 0.02 0.01 0.01 0.01 0.01 0.01 0.01 0.01 0.01 0.01 0.01 0.02 0.01 0.01 0.02 0.05 0.10 0.15 0.18 0.23 0.32
0.03 0.03 0.03 0.03 0.03 0.03 0.02 0.02 0.02 0.01 0.02 0.04 0.04 0.04 0.05 0.03 0.03 0.03 0.03 0.02 0.02 0.01 0.01 0.01 0.01 0.01 0.01 0.01 0.01 0.01 0.01 0.01 0.02 0.02 0.02 0.02 0.01 0.01 0.02 0.05 0.10 0.13 0.19
0.03 0.02 0.02 0.03 0.02 0.02 0.01 0.02 0.02 0.02 0.02 0.03 0.04 0.03 0.03 0.02 0.02 0.02 0.02 0.02 0.01 0.01 0.01 0.01 0.01 0.00 0.01 0.01 0.01 0.01 0.01 0.01 0.01 0.02 0.02 0.02 0.02 0.02 0.02 0.02 0.03 0.05 0.08
0.02 0.02 0.02 0.02 0.02 0.02 0.01 0.01 0.02 0.02 0.02 0.03 0.03 0.03 0.03 0.02 0.02 0.02 0.01 0.01 0.01 0.01 0.01 0.01 0.01 0.01 0.01 0.01 0.00 0.00 0.01 0.01 0.01 0.02 0.02 0.02 0.02 0.02 0.03 0.03 0.03 0.04 0.05
0.01 0.01 0.01 0.01 0.02 0.01 0.01 0.02 0.02 0.01 0.02 0.02 0.03 0.03 0.02 0.01 0.01 0.02 0.02 0.01 0.01 0.01 0.00 0.00 0.00 0.00 0.00 0.00 0.00 0.00 0.00 0.00 0.00 0.01 0.01 0.02 0.03 0.03 0.03 0.03 0.04 0.05 0.05
0.00 0.00 0.01 0.01 0.01 0.00 0.00 0.02 0.03 0.02 0.01 0.01 0.02 0.02 0.02 0.02 0.01 0.01 0.01 0.02 0.01 0.00 0.00 0.00 0.00 0.00 0.00 0.00 0.00 0.00 0.00 0.00 0.01 0.00 0.00 0.01 0.01 0.03 0.03 0.04 0.04 0.04 0.04
0.00 0.00 0.00 0.00 0.01 0.01 0.01 0.00 0.01 0.00 0.00 0.00 0.01 0.01 0.01 0.02 0.02 0.02 0.02 0.01 0.00 0.00 0.00 0.00 0.00 0.00 0.00 0.00 0.00 0.00 0.00 0.00 0.00 0.00 0.00 0.01 0.01 0.01 0.02 0.03 0.05 0.05 0.04
0.00 0.00 0.00 0.00 0.00 0.01 0.01 0.01 0.01 0.01 0.01 0.01 0.01 0.02 0.02 0.02 0.02 0.01 0.01 0.01 0.01 0.00 0.00 0.00 0.00 0.00 0.00 0.00 0.00 0.00 0.00 0.00 0.00 0.00 0.00 0.00 0.00 0.00 0.01 0.01 0.03 0.04 0.04
0.00 0.00 0.00 0.00 0.00 0.01 0.01 0.02 0.02 0.02 0.02 0.02 0.01 0.02 0.02 0.02 0.02 0.02 0.01 0.01 0.01 0.00 0.00 0.00 0.00 0.00 0.00 0.00 0.00 0.00 0.00 0.01 0.01 0.00 0.00 0.00 0.00 0.00 0.00 0.00 0.02 0.03 0.03
0.01 0.01 0.00 0.00 0.00 0.01 0.01 0.02 0.02 0.02 0.02 0.02 0.01 0.01 0.02 0.02 0.02 0.04 0.05 0.03 0.02 0.01 0.01 0.00 0.00 0.00 0.00 0.00 0.00 0.00 0.00 0.01 0.01 0.01 0.00 0.00 0.01 0.01 0.01 0.01 0.01 0.02 0.02
MSLP
1015.32 1014.40 1013.54 1012.83 1012.32 1012.01 1011.87 1011.82 1011.79 1011.73 1011.59 1011.39 1011.17 1010.97 1010.84 1010.78 1010.78 1010.81 1010.82 1010.78 1010.68 1010.53 1010.37 1010.22 1010.10 1009.99 1009.85 1009.61 1009.19 1008.57 1007.75 1006.80 1005.86 1005.07 1004.57 1004.46 1004.77 1005.44 1006.36 1007.37 1008.30 1009.04 1009.52
1015.66 1014.76 1013.91 1013.22 1012.72 1012.42 1012.28 1012.21 1012.15 1012.04 1011.87 1011.65 1011.42 1011.24 1011.13 1011.11 1011.13 1011.18 1011.18 1011.12 1010.97 1010.77 1010.54 1010.34 1010.18 1010.07 1009.94 1009.74 1009.39 1008.86 1008.16 1007.33 1006.50 1005.79 1005.34 1005.24 1005.50 1006.07 1006.85 1007.69 1008.46 1009.03 1009.38
1015.90 1015.03 1014.22 1013.57 1013.11 1012.83 1012.69 1012.62 1012.54 1012.41 1012.21 1011.98 1011.75 1011.58 1011.48 1011.47 1011.51 1011.55 1011.53 1011.42 1011.22 1010.96 1010.67 1010.42 1010.23 1010.10 1010.00 1009.86 1009.62 1009.24 1008.70 1008.06 1007.40 1006.84 1006.48 1006.39 1006.59 1007.04 1007.63 1008.26 1008.80 1009.18 1009.37
1016.06 1015.25 1014.50 1013.91 1013.50 1013.27 1013.15 1013.08 1012.99 1012.84 1012.63 1012.38 1012.15 1011.97 1011.87 1011.86 1011.89 1011.90 1011.85 1011.70 1011.45 1011.13 1010.79 1010.49 1010.26 1010.12 1010.05 1009.98 1009.86 1009.63 1009.29 1008.86 1008.41 1008.01 1007.76 1007.70 1007.85 1008.17 1008.57 1008.96 1009.27 1009.44 1009.46
1016.23 1015.49 1014.83 1014.31 1013.97 1013.79 1013.69 1013.63 1013.53 1013.36 1013.12 1012.85 1012.60 1012.41 1012.30 1012.26 1012.27 1012.26 1012.17 1011.98 1011.69 1011.33 1010.94 1010.60 1010.35 1010.20 1010.14 1010.13 1010.10 1010.01 1009.84 1009.61 1009.34 1009.11 1008.97 1008.96 1009.06 1009.25 1009.47 1009.65 1009.75 1009.73 1009.61
1016.49 1015.84 1015.27 1014.84 1014.57 1014.43 1014.35 1014.28 1014.16 1013.96 1013.69 1013.39 1013.11 1012.90 1012.77 1012.71 1012.69 1012.65 1012.54 1012.32 1012.01 1011.62 1011.21 1010.85 1010.57 1010.40 1010.33 1010.33 1010.35 1010.35 1010.30 1010.21 1010.10 1010.01 1009.95 1009.96 1010.03 1010.12 1010.19 1010.21 1010.13 1009.98 1009.77
1016.90 1016.34 1015.87 1015.52 1015.31 1015.20 1015.13 1015.04 1014.88 1014.64 1014.33 1014.00 1013.69 1013.46 1013.30 1013.23 1013.18 1013.12 1013.00 1012.77 1012.45 1012.06 1011.65 1011.27 1010.97 1010.77 1010.67 1010.65 1010.66 1010.68 1010.68 1010.67 1010.64 1010.61 1010.61 1010.64 1010.67 1010.68 1010.64 1010.54 1010.35 1010.11 1009.87
1017.47 1017.00 1016.61 1016.34 1016.18 1016.09 1016.01 1015.88 1015.68 1015.39 1015.04 1014.68 1014.35 1014.10 1013.94 1013.85 1013.79 1013.72 1013.58 1013.36 1013.05 1012.68 1012.28 1011.90 1011.58 1011.35 1011.19 1011.11 1011.07 1011.04 1011.02 1010.99 1010.97 1010.96 1010.97 1010.97 1010.97 1010.92 1010.81 1010.63 1010.39 1010.12 1009.88
1018.12 1017.74 1017.44 1017.24 1017.12 1017.03 1016.93 1016.76 1016.51 1016.18 1015.80 1015.42 1015.09 1014.84 1014.68 1014.58 1014.51 1014.43 1014.30 1014.09 1013.79 1013.44 1013.06 1012.69 1012.37 1012.10 1011.89 1011.72 1011.59 1011.48 1011.37 1011.27 1011.19 1011.14 1011.10 1011.07 1011.02 1010.92 1010.77 1010.56 1010.30 1010.03 1009.81
1018.77 1018.48 1018.26 1018.12 1018.04 1017.95 1017.82 1017.62 1017.33 1016.98 1016.59 1016.21 1015.90 1015.66 1015.51 1015.41 1015.34 1015.25 1015.11 1014.89 1014.61 1014.28 1013.93 1013.58 1013.25 1012.96 1012.70 1012.46 1012.23 1012.01 1011.79 1011.59 1011.41 1011.27 1011.16 1011.07 1010.97 1010.83 1010.65 1010.42 1010.16 1009.91 1009.72
1019.33 1019.12 1018.98 1018.91 1018.85 1018.77 1018.63 1018.41 1018.10 1017.74 1017.36 1017.02 1016.73 1016.53 1016.39 1016.30 1016.22 1016.12 1015.95 1015.73 1015.45 1015.13 1014.80 1014.47 1014.16 1013.86 1013.57 1013.27 1012.96 1012.64 1012.31 1012.00 1011.72 1011.48 1011.29 1011.12 1010.97 1010.79 1010.59 1010.35 1010.09 1009.85 1009.67
1019.72 1019.60 1019.55 1019.53 1019.51 1019.45 1019.31 1019.08 1018.78 1018.44 1018.10 1017.80 1017.56 1017.40 1017.29 1017.20 1017.10 1016.97 1016.77 1016.52 1016.23 1015.91 1015.59 1015.29 1015.00 1014.71 1014.42 1014.09 1013.73 1013.34 1012.93 1012.53 1012.16 1011.83 1011.56 1011.33 1011.12 1010.91 1010.68 1010.43 1010.17 1009.93 1009.74
1019.95 1019.92 1019.94 1019.98 1020.01 1019.97 1019.84 1019.63 1019.35 1019.05 1018.76 1018.52 1018.34 1018.22 1018.13 1018.04 1017.93 1017.75 1017.52 1017.23 1016.90 1016.58 1016.27 1015.98 1015.72 1015.46 1015.18 1014.86 1014.49 1014.07 1013.62 1013.17 1012.73 1012.34 1012.01 1011.72 1011.47 1011.23 1010.98 1010.72 1010.45 1010.19 1009.97
1020.05 1020.09 1020.18 1020.28 1020.35 1020.34 1020.23 1020.05 1019.81 1019.56 1019.33 1019.15 1019.02 1018.94 1018.87 1018.78 1018.64 1018.43 1018.15 1017.82 1017.47 1017.13 1016.82 1016.55 1016.31 1016.08 1015.84 1015.55 1015.20 1014.79 1014.33 1013.86 1013.40 1012.98 1012.61 1012.29 1012.01 1011.75 1011.48 1011.21 1010.92 1010.63 1010.37
1020.09 1020.19 1020.33 1020.48 1020.58 1020.59 1020.52 1020.38 1020.18 1019.98 1019.80 1019.67 1019.59 1019.54 1019.49 1019.39 1019.24 1019.00 1018.69 1018.33 1017.95 1017.60 1017.28 1017.02 1016.80 1016.60 1016.39 1016.13 1015.82 1015.44 1015.01 1014.55 1014.10 1013.68 1013.30 1012.96 1012.67 1012.39 1012.12 1011.83 1011.52 1011.21 1010.89
1020.12 1020.25 1020.44 1020.61 1020.73 1020.77 1020.73 1020.62 1020.47 1020.31 1020.18 1020.09 1020.04 1020.01 1019.96 1019.87 1019.71 1019.46 1019.14 1018.77 1018.39 1018.04 1017.72 1017.46 1017.25 1017.06 1016.87 1016.64 1016.36 1016.02 1015.63 1015.21 1014.79 1014.38 1014.01 1013.68 1013.38 1013.10 1012.82 1012.52 1012.20 1011.86 1011.50
1020.17 1020.33 1020.52 1020.70 1020.83 1020.89 1020.88 1020.81 1020.70 1020.58 1020.49 1020.42 1020.39 1020.36 1020.32 1020.23 1020.07 1019.84 1019.54 1019.20 1018.84 1018.50 1018.19 1017.93 1017.71 1017.52 1017.33 1017.11 1016.85 1016.55 1016.20 1015.82 1015.43 1015.05 1014.70 1014.38 1014.08 1013.80 1013.51 1013.21 1012.89 1012.53 1012.14
1020.25 1020.40 1020.59 1020.76 1020.89 1020.97 1020.98 1020.95 1020.88 1020.81 1020.74 1020.69 1020.66 1020.63 1020.59 1020.51 1020.37 1020.18 1019.92 1019.63 1019.32 1019.01 1018.72 1018.46 1018.23 1018.02 1017.80 1017.58 1017.33 1017.04 1016.72 1016.38 1016.03 1015.69 1015.35 1015.04 1014.74 1014.45 1014.16 1013.86 1013.53 1013.17 1012.78
1020.30 1020.44 1020.59 1020.74 1020.87 1020.97 1021.02 1021.04 1021.02 1020.99 1020.95 1020.91 1020.88 1020.84 1020.80 1020.73 1020.62 1020.48 1020.29 1020.07 1019.82 1019.56 1019.30 1019.04 1018.80 1018.56 1018.31 1018.07 1017.81 1017.54 1017.25 1016.94 1016.63 1016.31 1015.99 1015.68 1015.37 1015.07 1014.77 1014.46 1014.13 1013.77 1013.39
1020.26 1020.37 1020.49 1020.62 1020.76 1020.88 1020.99 1021.07 1021.12 1021.14 1021.14 1021.11 1021.08 1021.03 1020.97 1020.91 1020.83 1020.74 1020.62 1020.48 1020.31 1020.12 1019.89 1019.65 1019.39 1019.12 1018.85 1018.59 1018.32 1018.06 1017.80 1017.53 1017.24 1016.95 1016.64 1016.32 1016.00 1015.67 1015.35 1015.02 1014.69 1014.34 1013.96
1020.06 1020.14 1020.24 1020.36 1020.51 1020.68 1020.86 1021.03 1021.16 1021.26 1021.30 1021.30 1021.26 1021.19 1021.12 1021.06 1021.00 1020.95 1020.90 1020.84 1020.75 1020.61 1020.43 1020.21 1019.95 1019.67 1019.38 1019.11 1018.85 1018.61 1018.37 1018.14 1017.89 1017.62 1017.32 1016.99 1016.64 1016.28 1015.91 1015.56 1015.21 1014.86 1014.50
1019.68 1019.74 1019.83 1019.95 1020.13 1020.36 1020.63 1020.90 1021.14 1021.33 1021.43 1021.46 1021.42 1021.34 1021.25 1021.17 1021.12 1021.10 1021.10 1021.10 1021.07 1021.00 1020.86 1020.67 1020.42 1020.15 1019.87 1019.60 1019.36 1019.16 1018.97 1018.78 1018.57 1018.32 1018.02 1017.67 1017.29 1016.88 1016.47 1016.07 1015.70 1015.35 1015.00
1019.11 1019.17 1019.25 1019.39 1019.61 1019.93 1020.29 1020.68 1021.04 1021.33 1021.51 1021.57 1021.54 1021.45 1021.33 1021.23 1021.17 1021.15 1021.18 1021.23 1021.25 1021.23 1021.14 1020.98 1020.77 1020.51 1020.26 1020.02 1019.82 1019.66 1019.53 1019.39 1019.22 1019.00 1018.70 1018.33 1017.91 1017.45 1016.98 1016.54 1016.13 1015.77 1015.43
1018.38 1018.45 1018.54 1018.71 1018.99 1019.38 1019.86 1020.37 1020.85 1021.24 1021.50 1021.62 1021.60 1021.50 1021.36 1021.23 1021.15 1021.13 1021.17 1021.23 1021.29 1021.31 1021.26 1021.15 1020.97 1020.75 1020.53 1020.34 1020.19 1020.09 1020.01 1019.92 1019.79 1019.59 1019.29 1018.91 1018.44 1017.93 1017.41 1016.92 1016.48 1016.09 1015.76
1017.57 1017.65 1017.76 1017.96 1018.30 1018.77 1019.34 1019.97 1020.56 1021.05 1021.39 1021.56 1021.57 1021.48 1021.32 1021.17 1021.07 1021.03 1021.07 1021.15 1021.23 1021.27 1021.26 1021.18 1021.04 1020.86 1020.68 1020.54 1020.44 1020.39 1020.36 1020.31 1020.22 1020.03 1019.74 1019.33 1018.83 1018.28 1017.72 1017.18 1016.71 1016.30 1015.95
1016.71 1016.82 1016.95 1017.18 1017.57 1018.11 1018.76 1019.48 1020.17 1020.75 1021.17 1021.39 1021.44 1021.36 1021.21 1021.05 1020.94 1020.89 1020.92 1021.00 1021.10 1021.16 1021.17 1021.12 1021.01 1020.87 1020.73 1020.62 1020.56 1020.55 1020.55 1020.53 1020.45 1020.28 1019.98 1019.56 1019.04 1018.47 1017.87 1017.31 1016.80 1016.37 1016.01
Thickness
5758 5761 5763 5764 5764 5764 5764 5764 5764 5764 5765 5765 5764 5764 5764 5764 5764 5764 5765 5765 5765 5765 5765 5766 5766 5766 5765 5764 5764 5764 5764 5764 5763 5763 5763 5763 5763 5764 5764 5764 5764 5764 5764
5759 5760 5761 5762 5762 5762 5762 5762 5762 5762 5762 5762 5762 5762 5762 5762 5762 5762 5762 5762 5762 5762 5762 5763 5763 5763 5762 5762 5762 5762 5761 5761 5761 5761 5760 5760 5761 5761 5761 5761 5761 5761 5761
5758 5759 5759 5760 5759 5759 5759 5759 5759 5759 5759 5759 5759 5759 5759 5759 5759 5759 5759 5759 5759 5760 5760 5760 5760 5760 5760 5759 5759 5759 5758 5758 5758 5758 5758 5757 5758 5758 5758 5759 5759 5759 5759
5757 5757 5757 5757 5757 5757 5757 5757 5757 5757 5756 5756 5756 5755 5755 5755 5755 5756 5756 5756 5756 5757 5757 5757 5757 5757 5757 5756 5756 5756 5755 5755 5755 5754 5754 5754 5755 5755 5756 5756 5756 5756 5756
5755 5754 5755 5755 5755 5754 5754 5754 5754 5753 5753 5753 5752 5752 5752 5752 5752 5752 5752 5753 5753 5753 5754 5754 5754 5754 5753 5753 5752 5752 5752 5751 5751 5751 5751 5751 5752 5752 5753 5753 5753 5753 5753
5752 5752 5752 5752 5752 5751 5751 5751 5750 5750 5750 5749 5749 5748 5748 5748 5748 5748 5748 5749 5749 5750 5750 5750 5751 5750 5750 5749 5749 5748 5748 5747 5747 5747 5747 5747 5748 5749 5749 5749 5749 5749 5750
5749 5749 5749 5749 5749 5748 5748 5747 5747 5747 5746 5746 5745 5744 5744 5743 5744 5744 5744 5744 5745 5746 5746 5747 5747 5747 5746 5745 5745 5744 5744 5743 5743 5743 5743 5743 5744 5745 5745 5746 5746 5746 5746
5746 5746 5746 5745 5745 5745 5744 5744 5743 5743 5742 5742 5741 5740 5740 5739 5739 5739 5739 5740 5741 5741 5742 5743 5743 5742 5742 5741 5741 5740 5740 5739 5738 5738 5739 5739 5740 5741 5741 5741 5742 5742 5743
5744 5743 5742 5742 5742 5741 5740 5740 5739 5739 5738 5737 5737 5736 5735 5735 5734 5735 5735 5735 5736 5736 5737 5738 5738 5737 5737 5737 5736 5736 5735 5735 5734 5734 5735 5735 5736 5737 5737 5737 5738 5738 5739
5740 5739 5738 5738 5737 5737 5737 5736 5735 5734 5734 5733 5733 5732 5731 5730 5730 5730 5731 5731 5731 5731 5732 5733 5733 5733 5732 5732 5732 5731 5731 5730 5730 5730 5730 5731 5732 5732 5733 5733 5733 5734 5734
5735 5735 5734 5734 5733 5733 5732 5732 5731 5730 5729 5729 5728 5728 5727 5726 5726 5726 5726 5726 5726 5727 5727 5727 5727 5727 5726 5726 5726 5726 5726 5725 5725 5725 5726 5727 5727 5728 5729 5729 5729 5729 5729
5729 5730 5730 5730 5730 5729 5728 5727 5727 5726 5725 5724 5723 5723 5723 5722 5722 5721 5721 5721 5721 5721 5721 5721 5721 5721 5721 5721 5720 5720 5720 5720 5720 5720 5721 5722 5723 5723 5724 5724 5725 5725 5725
5727 5727 5727 5726 5726 5725 5724 5723 5722 5721 5721 5720 5719 5718 5718 5718 5717 5717 5716 5716 5716 5716 5716 5716 5716 5716 5716 5715 5715 5715 5715 5715 5715 5715 5716 5717 5718 5719 5719 5720 5720 5721 5721
5724 5724 5724 5724 5723 5721 5720 5719 5718 5717 5716 5716 5715 5714 5714 5713 5713 5712 5711 5711 5711 5711 5711 5711 5711 5711 5711 5710 5710 5709 5709 5710 5710 5710 5711 5712 5713 5714 5714 5715 5716 5717 5718
5721 5721 5721 5721 5719 5718 5717 5716 5714 5713 5712 5712 5711 5710 5710 5709 5708 5707 5707 5706 5706 5706 5706 5706 5706 5706 5706 5705 5705 5704 5704 5704 5705 5705 5705 5706 5707 5708 5709 5710 5711 5712 5713
5720 5719 5718 5718 5717 5715 5713 5712 5711 5710 5709 5708 5708 5707 5706 5705 5704 5703 5703 5702 5701 5701 5701 5701 5701 5701 5700 5700 5699 5699 5699 5699 5699 5700 5700 5700 5701 5702 5703 5705 5706 5707 5710
5718 5717 5716 5715 5714 5712 5711 5709 5708 5707 5706 5705 5704 5703 5702 5701 5700 5699 5698 5697 5697 5697 5697 5697 5696 5696 5695 5695 5694 5694 5694 5694 5694 5694 5695 5695 5695 5696 5697 5700 5700 5701 5704
5716 5715 5714 5714 5711 5709 5707 5706 5705 5703 5702 5701 5700 5699 5698 5697 5696 5695 5694 5693 5692 5692 5692 5692 5691 5690 5689 5688 5688 5688 5688 5689 5689 5689 5690 5690 5690 5690 5691 5692 5694 5694 5696
5715 5713 5711 5710 5708 5706 5704 5703 5701 5700 5699 5698 5696 5695 5695 5693 5692 5691 5690 5689 5688 5688 5687 5687 5685 5684 5683 5682 5683 5683 5683 5683 5683 5684 5684 5684 5684 5684 5685 5686 5687 5688 5689
5714 5712 5709 5708 5705 5703 5701 5699 5697 5696 5695 5694 5693 5692 5691 5690 5689 5688 5686 5685 5685 5684 5683 5682 5680 5679 5678 5677 5678 5677 5677 5677 5677 5678 5678 5678 5678 5679 5679 5680 5680 5681 5682
5711 5709 5707 5704 5703 5700 5697 5694 5692 5691 5690 5690 5689 5689 5688 5687 5686 5684 5683 5682 5681 5680 5679 5678 5676 5674 5672 5672 5671 5669 5671 5672 5672 5672 5672 5672 5672 5673 5673 5674 5674 5675 5675
5708 5706 5705 5703 5701 5699 5696 5694 5691 5689 5688 5687 5686 5686 5685 5684 5683 5681 5680 5678 5677 5675 5674 5673 5672 5669 5667 5666 5664 5661 5660 5661 5664 5666 5665 5666 5666 5666 5667 5668 5668 5668 5669
5706 5705 5704 5701 5699 5697 5694 5691 5688 5685 5684 5682 5682 5681 5681 5680 5680 5678 5677 5675 5673 5672 5670 5669 5668 5666 5662 5661 5660 5657 5653 5651 5653 5657 5658 5659 5659 5660 5661 5661 5662 5663 5663
5706 5704 5702 5700 5697 5694 5692 5689 5685 5682 5679 5679 5678 5678 5677 5677 5676 5675 5673 5672 5670 5668 5667 5665 5664 5662 5659 5656 5654 5653 5651 5650 5646 5646 5650 5652 5653 5654 5654 5655 5656 5657 5657
5704 5702 5700 5698 5694 5692 5689 5687 5683 5680 5677 5675 5675 5674 5673 5673 5672 5671 5670 5668 5666 5665 5663 5662 5660 5658 5656 5653 5650 5648 5646 5644 5642 5640 5640 5643 5646 5648 5649 5649 5650 5651 5652
5701 5699 5697 5694 5692 5690 5687 5684 5681 5678 5675 5672 5670 5669 5668 5667 5667 5667 5666 5664 5663 5661 5659 5658 5656 5654 5652 5650 5647 5645 5643 5641 5638 5636 5634 5635 5636 5640 5643 5644 5645 5646 5647